FW6537 Weather Reports


Display with metric or nautical units.
time (UTC)temp
F
wind
direction
speed
MPH
gust
MPH
rain 1hr
in
rain 24hr
in
rain mn
in
humidity
%
barometer
mb
20260507010136 45 101 0.0 0.0 0.00 0.87 0.73 93 1010.5
20260507004656 45 101 0.0 0.0 0.00 0.87 0.73 92 1010.4
20260507003129 45 101 0.0 1.0 0.00 0.87 0.73 92 1010.3
20260507001647 46 101 0.0 2.0 0.00 0.87 0.73 92 1010.1
20260507000143 46 99 0.0 5.0 0.00 0.87 0.73 92 1009.9
20260506234631 46 101 0.0 1.0 0.00 0.87 0.73 93 1009.7
20260506233123 46 119 0.0 1.0 0.00 0.87 0.73 93 1009.5
20260506231622 46 119 0.0 0.0 0.00 0.87 0.73 92 1008.7
20260506230134 46 119 0.0 0.0 0.00 0.87 0.73 92 1008.9
20260506224635 46 119 0.0 1.0 0.00 0.87 0.73 91 1009.1
20260506223129 46 94 0.0 2.0 0.00 0.87 0.73 91 1009.3
20260506221625 46 103 0.0 2.0 0.00 0.87 0.73 92 1009.5
20260506220144 46 113 0.0 2.0 0.00 0.87 0.73 92 1009.2
20260506214659 46 121 0.0 3.0 0.00 0.92 0.73 93 1009.1
20260506213136 46 123 1.0 4.0 0.00 0.92 0.73 94 1009.0
20260506211628 46 104 0.0 4.0 0.00 0.92 0.73 94 1008.8
20260506210144 46 98 1.0 3.0 0.01 0.92 0.73 94 1008.7
20260506204635 46 84 1.0 4.0 0.01 0.94 0.73 95 1008.6
20260506203142 46 103 0.0 2.0 0.01 0.94 0.73 95 1008.4
20260506201636 46 127 0.0 4.0 0.01 0.94 0.73 95 1008.1
20260506200135 46 96 1.0 6.0 0.01 0.93 0.72 95 1008.2
20260506194622 46 129 1.0 5.0 0.02 0.93 0.72 95 1008.1
20260506193146 46 115 1.0 3.0 0.02 0.93 0.72 95 1008.2
20260506191635 46 122 0.0 2.0 0.02 0.93 0.72 95 1008.1
20260506190134 46 134 0.0 4.0 0.01 0.92 0.71 95 1008.0
20260506184634 46 150 1.0 6.0 0.01 0.93 0.70 95 1007.9
20260506183134 47 107 1.0 5.0 0.01 0.93 0.70 95 1007.6
20260506181629 47 135 1.0 3.0 0.01 0.93 0.70 95 1007.4
20260506180125 47 120 1.0 3.0 0.02 0.93 0.70 95 1007.1
20260506174639 47 106 0.0 2.0 0.01 0.92 0.69 95 1007.2
20260506173142 47 132 0.0 3.0 0.02 0.92 0.69 95 1006.9
20260506171633 46 120 1.0 4.0 0.04 0.92 0.69 95 1006.9
20260506170136 46 135 0.0 3.0 0.05 0.91 0.68 95 1007.1
20260506164628 46 114 0.0 2.0 0.06 0.91 0.68 96 1007.1
20260506163125 46 142 1.0 3.0 0.07 0.90 0.67 95 1007.1
20260506161622 46 141 0.0 2.0 0.06 0.88 0.65 95 1007.1
20260506160135 46 123 0.0 1.0 0.05 0.86 0.63 96 1007.4
20260506154632 45 135 0.0 1.0 0.04 0.85 0.62 95 1007.4
20260506153129 45 138 0.0 0.0 0.03 0.83 0.60 95 1007.7
20260506151636 45 138 1.0 2.0 0.03 0.82 0.59 95 1007.5
20260506150137 45 147 0.0 0.0 0.03 0.81 0.58 95 1007.0
20260506144630 45 147 0.0 0.0 0.05 0.81 0.58 95 1007.1
20260506143148 45 148 0.0 2.0 0.07 0.80 0.57 95 1007.3
20260506141629 45 147 0.0 2.0 0.09 0.79 0.56 95 1007.3
20260506140126 45 146 0.0 3.0 0.13 0.78 0.55 95 1007.2
20260506133144 45 126 0.0 4.0 0.15 0.73 0.50 95 1007.3
20260506131639 45 126 2.0 4.0 0.15 0.70 0.47 95 1007.5
20260506130136 45 147 0.0 3.0 0.12 0.65 0.42 95 1007.6
20260506124650 45 136 0.0 2.0 0.10 0.62 0.39 95 1007.2
20260506123122 45 152 0.0 1.0 0.07 0.58 0.35 95 1007.0
20260506121641 45 157 1.0 4.0 0.08 0.55 0.32 95 1007.0
20260506120131 45 145 1.0 3.0 0.09 0.53 0.30 95 1007.0
20260506114627 45 131 1.0 5.0 0.11 0.52 0.29 95 1007.1
20260506113128 46 140 2.0 3.0 0.13 0.51 0.28 95 1007.4
20260506111642 46 135 0.0 1.0 0.10 0.47 0.24 95 1007.6
20260506110135 45 101 0.0 1.0 0.08 0.44 0.21 95 1007.4
20260506104634 45 101 0.0 1.0 0.07 0.41 0.18 95 1007.6
20260506103132 45 141 0.0 1.0 0.05 0.37 0.14 95 1007.2
20260506101629 45 142 0.0 0.0 0.05 0.36 0.13 94 1007.3
20260506100130 45 141 0.0 1.0 0.05 0.36 0.13 94 1007.5
20260506094630 45 135 0.0 2.0 0.05 0.34 0.11 94 1007.7
20260506093124 46 118 0.0 2.0 0.04 0.32 0.09 94 1008.1
20260506091639 46 109 2.0 5.0 0.04 0.31 0.08 94 1007.3
20260506090134 46 158 2.0 5.0 0.05 0.31 0.08 94 1008.0
20260506084622 47 111 1.0 5.0 0.04 0.29 0.06 94 1008.2
20260506083125 48 168 3.0 6.0 0.03 0.28 0.05 94 1008.1
20260506081646 48 156 1.0 5.0 0.02 0.27 0.04 95 1007.9
20260506080125 48 131 1.0 2.0 0.01 0.26 0.03 95 1008.1
20260506073143 48 126 0.0 0.0 0.00 0.25 0.02 95 1007.7
20260506071638 48 126 0.0 0.0 0.02 0.25 0.02 95 1007.6
20260506070153 48 126 0.0 0.0 0.02 0.25 0.02 95 1007.4
20260506061640 48 128 0.0 1.0 0.00 0.23 0.00 95 1008.3
20260506060135 49 108 1.0 3.0 0.00 0.23 0.00 95 1008.4
20260506050139 49 117 0.0 0.0 0.00 0.23 0.00 94 1008.9
20260506044645 49 117 0.0 0.0 0.00 0.23 0.00 94 1009.1
20260506043159 49 117 0.0 0.0 0.01 0.23 0.00 94 1009.1
20260506041635 49 116 0.0 0.0 0.03 0.23 0.00 94 1009.5
20260506040125 49 124 0.0 0.0 0.04 0.23 0.00 94 1009.3
20260506034623 49 124 0.0 0.0 0.05 0.23 0.23 94 1009.7
20260506033135 49 82 0.0 0.0 0.06 0.22 0.22 93 1009.7
20260506031627 49 117 0.0 0.0 0.05 0.20 0.20 93 1009.9
20260506030126 49 117 0.0 0.0 0.06 0.19 0.19 93 1009.7
20260506024640 49 116 0.0 0.0 0.05 0.18 0.18 93 1009.5
20260506023135 49 116 0.0 1.0 0.04 0.16 0.16 92 1009.7
20260506021628 49 89 0.0 2.0 0.04 0.15 0.15 92 1009.7
20260506020142 49 84 0.0 2.0 0.04 0.13 0.13 91 1008.9
20260506014637 49 110 1.0 2.0 0.04 0.13 0.13 90 1009.4
20260506013131 50 144 1.0 5.0 0.03 0.12 0.12 89 1009.4
20260506011627 51 133 1.0 4.0 0.02 0.11 0.11 85 1009.3